GIA1203 WIMM-OEMA

Flight info

Callsign GIA1203
Flight time N/A
Altitude 34000
Route MAIMU DCT MEMAK N563 REXOD L883 UMILA N569 TOKRA DCT ITRUX Y511 ELONU
Aircraft B77W/H-SDE1E2E3FGHIJ4J5M1RWXY/LB1D1

Departure

Time N/A
Airport Kualanamu International Airport (WIMM)

Arrival

Time 2026-04-24 19:18
Airport Prince Mohammad Bin Abdulaziz Airport (OEMA)
Time Latitude Longitude Altitude Speed Heading
2026-04-24 13:09 9.45016 85.44334 33845 ft 500 kts 293°
2026-04-24 13:09 9.46503 85.41119 33845 ft 501 kts 293°
2026-04-24 13:09 9.49459 85.34725 33846 ft 500 kts 293°
2026-04-24 13:10 9.52403 85.28353 33848 ft 500 kts 293°
2026-04-24 13:10 9.55339 85.21995 33849 ft 499 kts 293°
2026-04-24 13:11 9.58291 85.15597 33849 ft 500 kts 293°
2026-04-24 13:11 9.61229 85.09228 33849 ft 499 kts 293°
2026-04-24 13:12 9.64172 85.02844 33848 ft 496 kts 293°
2026-04-24 13:12 9.67110 84.96468 33848 ft 499 kts 293°
2026-04-24 13:13 9.70051 84.90079 33848 ft 499 kts 293°
2026-04-24 13:13 9.72991 84.83691 33848 ft 499 kts 292°
2026-04-24 13:14 9.75914 84.77335 33848 ft 498 kts 292°
2026-04-24 13:14 9.78668 84.71345 33848 ft 498 kts 292°
2026-04-24 13:15 9.81593 84.64979 33848 ft 498 kts 293°
2026-04-24 13:15 9.84561 84.58511 33848 ft 505 kts 292°
2026-04-24 13:16 9.87510 84.52085 33848 ft 504 kts 292°
2026-04-24 13:16 9.90478 84.45615 33848 ft 505 kts 292°
2026-04-24 13:17 9.93430 84.39173 33848 ft 505 kts 292°
2026-04-24 13:17 9.96375 84.32745 33851 ft 505 kts 292°
2026-04-24 13:18 9.99331 84.26286 33850 ft 505 kts 292°
2026-04-24 13:18 10.02292 84.19815 33847 ft 504 kts 292°
2026-04-24 13:19 10.05229 84.13391 33836 ft 504 kts 292°
2026-04-24 13:19 10.08178 84.06936 33832 ft 504 kts 292°
2026-04-24 13:20 10.11130 84.00472 33830 ft 504 kts 292°
2026-04-24 13:20 10.14065 83.94042 33832 ft 505 kts 292°
2026-04-24 13:21 10.17001 83.87604 33841 ft 505 kts 292°
2026-04-24 13:21 10.19954 83.81126 33843 ft 505 kts 292°
2026-04-24 13:22 10.22886 83.74688 33844 ft 505 kts 292°
2026-04-24 13:22 10.25829 83.68226 33843 ft 504 kts 292°
2026-04-24 13:23 10.28779 83.61740 33844 ft 504 kts 292°
2026-04-24 13:23 10.31682 83.55358 33843 ft 493 kts 292°
2026-04-24 13:24 10.33106 83.52230 33843 ft 481 kts 292°
2026-04-24 13:24 10.34493 83.49177 33845 ft 476 kts 292°
2026-04-24 13:24 10.37302 83.42987 33845 ft 481 kts 292°
2026-04-24 13:25 10.40091 83.36843 33845 ft 480 kts 292°
2026-04-24 13:25 10.42867 83.30723 33849 ft 479 kts 292°
2026-04-24 13:26 10.45657 83.24567 33848 ft 480 kts 292°
2026-04-24 13:26 10.48457 83.18386 33848 ft 480 kts 292°
2026-04-24 13:27 10.51239 83.12242 33848 ft 479 kts 291°
2026-04-24 13:27 10.54022 83.06091 33848 ft 479 kts 292°
2026-04-24 13:28 10.56804 82.99940 33849 ft 478 kts 292°
2026-04-24 13:28 10.59581 82.93795 33849 ft 479 kts 292°
2026-04-24 13:29 10.62347 82.87674 33846 ft 478 kts 292°
2026-04-24 13:29 10.65123 82.81541 33842 ft 479 kts 292°
2026-04-24 13:30 10.67918 82.75383 33844 ft 479 kts 292°
2026-04-24 13:30 10.70703 82.69244 33845 ft 480 kts 292°
2026-04-24 13:31 10.73503 82.63066 33843 ft 480 kts 292°
2026-04-24 13:31 10.76279 82.56937 33838 ft 479 kts 292°
2026-04-24 13:32 10.79076 82.50758 33830 ft 479 kts 292°
2026-04-24 13:32 10.81861 82.44600 33829 ft 478 kts 292°
2026-04-24 13:33 10.84628 82.38480 33829 ft 479 kts 292°
2026-04-24 13:33 10.87403 82.32337 33832 ft 479 kts 292°
2026-04-24 13:34 10.90189 82.26166 33830 ft 478 kts 292°
2026-04-24 13:34 10.92977 82.19988 33832 ft 479 kts 292°
2026-04-24 13:35 10.95737 82.13866 33836 ft 478 kts 292°
2026-04-24 13:35 10.98525 82.07680 33834 ft 479 kts 292°
2026-04-24 13:36 11.01291 82.01539 33833 ft 479 kts 291°
2026-04-24 13:36 11.04057 81.95393 33836 ft 478 kts 292°
2026-04-24 13:37 11.06818 81.89254 33844 ft 477 kts 291°
2026-04-24 13:37 11.09578 81.83112 33846 ft 478 kts 292°
2026-04-24 13:38 11.12334 81.76977 33840 ft 477 kts 292°
2026-04-24 13:38 11.15103 81.70811 33840 ft 477 kts 291°
2026-04-24 13:39 11.17856 81.64673 33842 ft 477 kts 291°
2026-04-24 13:39 11.20593 81.58569 33840 ft 477 kts 291°
2026-04-24 13:40 11.23351 81.52414 33839 ft 476 kts 291°
2026-04-24 13:40 11.26100 81.46274 33837 ft 475 kts 291°
2026-04-24 13:41 11.28840 81.40151 33834 ft 476 kts 291°
2026-04-24 13:41 11.31570 81.34046 33833 ft 475 kts 291°
2026-04-24 13:42 11.34300 81.27935 33832 ft 476 kts 291°
2026-04-24 13:42 11.37051 81.21777 33833 ft 476 kts 291°
2026-04-24 13:43 11.39766 81.15693 33833 ft 475 kts 291°
2026-04-24 13:43 11.42508 81.09546 33828 ft 475 kts 291°
2026-04-24 13:44 11.45225 81.03450 33829 ft 475 kts 291°
2026-04-24 13:44 11.47971 80.97284 33823 ft 475 kts 291°
2026-04-24 13:45 11.50699 80.91157 33824 ft 474 kts 291°
2026-04-24 13:45 11.53429 80.85018 33830 ft 476 kts 291°
2026-04-24 13:46 11.56161 80.78875 33821 ft 475 kts 291°
2026-04-24 13:46 11.58878 80.72756 33828 ft 477 kts 291°
2026-04-24 13:47 11.61616 80.66590 33823 ft 474 kts 291°
2026-04-24 13:47 11.64314 80.60509 33820 ft 476 kts 291°
2026-04-24 13:48 11.67060 80.54315 33823 ft 477 kts 291°
2026-04-24 13:48 11.69780 80.48175 33821 ft 476 kts 291°
2026-04-24 13:49 11.72497 80.42040 33816 ft 474 kts 291°
2026-04-24 13:49 11.75214 80.35899 33811 ft 474 kts 291°
2026-04-24 13:50 11.77922 80.29774 33818 ft 477 kts 290°
2026-04-24 13:50 11.80637 80.23630 33808 ft 474 kts 290°
2026-04-24 13:51 11.83355 80.17474 33810 ft 476 kts 290°
2026-04-24 13:51 11.86059 80.11346 33815 ft 477 kts 290°
2026-04-24 13:52 11.88750 80.05187 33812 ft 476 kts 290°
2026-04-24 13:52 11.91451 79.98991 33808 ft 474 kts 289°
2026-04-24 13:53 11.94116 79.92874 33812 ft 475 kts 289°
2026-04-24 13:53 11.96802 79.86706 33815 ft 473 kts 289°
2026-04-24 13:54 11.99471 79.80573 33822 ft 476 kts 289°
2026-04-24 13:54 12.02153 79.74410 33823 ft 471 kts 289°
2026-04-24 13:55 12.04811 79.68290 33826 ft 477 kts 289°
2026-04-24 13:55 12.07500 79.62102 33827 ft 473 kts 289°
2026-04-24 13:56 12.10216 79.55978 33832 ft 475 kts 290°
2026-04-24 13:56 12.13027 79.49837 33815 ft 475 kts 290°
2026-04-24 13:57 12.15817 79.43726 33822 ft 473 kts 290°
2026-04-24 13:57 12.18571 79.37684 33822 ft 474 kts 290°
2026-04-24 13:58 12.21354 79.31570 33832 ft 473 kts 290°
2026-04-24 13:58 12.24138 79.25441 33837 ft 483 kts 290°
2026-04-24 13:59 12.27017 79.19096 33840 ft 497 kts 290°
2026-04-24 13:59 12.29948 79.12644 33844 ft 497 kts 290°
2026-04-24 14:00 12.32854 79.06240 33844 ft 497 kts 290°
2026-04-24 14:00 12.35751 78.99848 33849 ft 496 kts 289°
2026-04-24 14:01 12.38654 78.93439 33861 ft 495 kts 289°
2026-04-24 14:01 12.41555 78.87028 33891 ft 494 kts 289°
2026-04-24 14:02 12.44430 78.80672 33928 ft 495 kts 289°
2026-04-24 14:02 12.47334 78.74243 33971 ft 495 kts 289°
2026-04-24 14:03 12.50233 78.67824 33970 ft 495 kts 289°
2026-04-24 14:03 12.53106 78.61455 33949 ft 495 kts 289°
2026-04-24 14:04 12.55995 78.55048 33926 ft 493 kts 289°
2026-04-24 14:04 12.58864 78.48679 33910 ft 495 kts 289°
2026-04-24 14:05 12.61745 78.42278 33922 ft 493 kts 289°
2026-04-24 14:05 12.64597 78.35940 33944 ft 492 kts 289°
2026-04-24 14:06 12.67473 78.29539 33970 ft 493 kts 289°
2026-04-24 14:06 12.70333 78.23172 33995 ft 491 kts 289°
2026-04-24 14:07 12.73192 78.16801 34006 ft 492 kts 288°
2026-04-24 14:07 12.76055 78.10419 34004 ft 491 kts 289°
2026-04-24 14:08 12.78901 78.04067 34004 ft 492 kts 289°
2026-04-24 14:08 12.81749 77.97707 34016 ft 492 kts 288°
2026-04-24 14:09 12.84623 77.91283 34018 ft 492 kts 289°
2026-04-24 14:09 12.87461 77.84934 34021 ft 491 kts 288°
2026-04-24 14:10 12.90321 77.78535 34007 ft 489 kts 288°
2026-04-24 14:10 12.93143 77.72212 34012 ft 490 kts 289°
2026-04-24 14:11 12.96036 77.65871 34003 ft 493 kts 292°
2026-04-24 14:12 13.01052 77.56633 34004 ft 494 kts 293°
2026-04-24 14:12 13.04385 77.50468 34006 ft 495 kts 292°
2026-04-24 14:13 13.07709 77.44285 34005 ft 495 kts 292°
2026-04-24 14:13 13.11026 77.38098 33999 ft 494 kts 292°
2026-04-24 14:14 13.14330 77.31921 34011 ft 497 kts 292°
2026-04-24 14:14 13.19318 77.22580 34009 ft 494 kts 292°
2026-04-24 14:15 13.22611 77.16406 34008 ft 496 kts 292°
2026-04-24 14:15 13.25910 77.10215 34002 ft 494 kts 292°
2026-04-24 14:16 13.29223 77.03995 34000 ft 493 kts 292°
2026-04-24 14:17 13.34169 76.94696 33999 ft 494 kts 292°
2026-04-24 14:17 13.39129 76.85359 34006 ft 495 kts 292°
2026-04-24 14:18 13.42417 76.79166 34000 ft 495 kts 292°
2026-04-24 14:18 13.45730 76.72922 33995 ft 495 kts 292°
2026-04-24 14:19 13.49017 76.66718 33990 ft 495 kts 292°
2026-04-24 14:19 13.52321 76.60481 33991 ft 494 kts 292°
2026-04-24 14:20 13.55624 76.54240 33983 ft 495 kts 292°
2026-04-24 14:20 13.58898 76.48051 33980 ft 493 kts 292°
2026-04-24 14:21 13.62176 76.41849 33989 ft 494 kts 292°
2026-04-24 14:21 13.65469 76.35613 33982 ft 493 kts 292°
2026-04-24 14:22 13.68741 76.29412 33992 ft 493 kts 291°
2026-04-24 14:23 13.73650 76.20100 33994 ft 493 kts 291°
2026-04-24 14:23 13.76908 76.13915 33995 ft 492 kts 291°
2026-04-24 14:24 13.80188 76.07684 33996 ft 492 kts 291°
2026-04-24 14:24 13.83447 76.01485 33999 ft 492 kts 292°
2026-04-24 14:25 13.86712 75.95271 34000 ft 493 kts 292°
2026-04-24 14:25 13.89974 75.89060 33991 ft 492 kts 292°
2026-04-24 14:26 13.93252 75.82813 33976 ft 493 kts 292°
2026-04-24 14:26 13.96513 75.76594 33960 ft 492 kts 292°
2026-04-24 14:27 13.99767 75.70383 33956 ft 492 kts 291°
2026-04-24 14:27 14.03005 75.64198 33954 ft 492 kts 291°
2026-04-24 14:28 14.06260 75.57973 33955 ft 493 kts 291°
2026-04-24 14:28 14.09513 75.51748 33957 ft 494 kts 291°
2026-04-24 14:29 14.12770 75.45491 33945 ft 492 kts 291°
2026-04-24 14:29 14.16021 75.39239 33942 ft 494 kts 291°
2026-04-24 14:30 14.19288 75.32954 33946 ft 494 kts 291°
2026-04-24 14:30 14.22548 75.26676 33942 ft 495 kts 291°
2026-04-24 14:31 14.25798 75.20415 33944 ft 494 kts 291°
2026-04-24 14:31 14.29029 75.14184 33946 ft 494 kts 291°
2026-04-24 14:32 14.32284 75.07901 33941 ft 495 kts 291°
2026-04-24 14:32 14.35509 75.01672 33936 ft 494 kts 291°
2026-04-24 14:33 14.38774 74.95361 33934 ft 494 kts 291°
2026-04-24 14:33 14.42008 74.89104 33926 ft 493 kts 291°
2026-04-24 14:34 14.45237 74.82851 33915 ft 495 kts 291°
2026-04-24 14:34 14.48491 74.76547 33914 ft 494 kts 291°
2026-04-24 14:35 14.51773 74.70322 33908 ft 496 kts 292°
2026-04-24 14:35 14.55077 74.64093 33890 ft 494 kts 292°
2026-04-24 14:36 14.58385 74.57844 33867 ft 496 kts 292°
2026-04-24 14:36 14.61690 74.51593 33848 ft 496 kts 292°
2026-04-24 14:37 14.64987 74.45350 33834 ft 495 kts 292°
2026-04-24 14:37 14.68294 74.39081 33828 ft 495 kts 292°
2026-04-24 14:38 14.71590 74.32829 33842 ft 497 kts 291°
2026-04-24 14:38 14.74858 74.26626 33840 ft 492 kts 291°
2026-04-24 14:39 14.78149 74.20369 33841 ft 496 kts 291°
2026-04-24 14:39 14.81429 74.14132 33838 ft 496 kts 291°
2026-04-24 14:40 14.84730 74.07849 33834 ft 494 kts 292°
2026-04-24 14:40 14.88009 74.01602 33820 ft 497 kts 291°
2026-04-24 14:41 14.91303 73.95323 33811 ft 495 kts 291°
2026-04-24 14:41 14.94581 73.89075 33810 ft 495 kts 291°
2026-04-24 14:42 14.97864 73.82815 33812 ft 497 kts 291°
2026-04-24 14:42 15.01154 73.76535 33813 ft 494 kts 291°
2026-04-24 14:43 15.04435 73.70248 33809 ft 497 kts 291°
2026-04-24 14:43 15.07711 73.63969 33815 ft 496 kts 291°
2026-04-24 14:44 15.10987 73.57684 33815 ft 498 kts 291°
2026-04-24 14:44 15.14269 73.51386 33817 ft 495 kts 291°
2026-04-24 14:45 15.17533 73.45111 33819 ft 497 kts 291°
2026-04-24 14:45 15.20799 73.38831 33817 ft 494 kts 291°
2026-04-24 14:46 15.24078 73.32519 33828 ft 498 kts 291°
2026-04-24 14:46 15.27342 73.26232 33826 ft 494 kts 291°
2026-04-24 14:47 15.30587 73.19974 33829 ft 499 kts 291°
2026-04-24 14:47 15.33879 73.13622 33824 ft 495 kts 291°
2026-04-24 14:48 15.37128 73.07348 33816 ft 498 kts 291°
2026-04-24 14:48 15.40403 73.01019 33814 ft 495 kts 291°
2026-04-24 14:49 15.43645 72.94748 33815 ft 495 kts 291°
2026-04-24 14:49 15.46917 72.88411 33814 ft 497 kts 291°
2026-04-24 14:50 15.50184 72.82079 33811 ft 495 kts 291°
2026-04-24 14:50 15.53423 72.75794 33815 ft 498 kts 291°
2026-04-24 14:51 15.56672 72.69491 33811 ft 494 kts 290°
2026-04-24 14:51 15.59960 72.63100 33809 ft 496 kts 291°
2026-04-24 14:52 15.63216 72.56770 33805 ft 496 kts 291°
2026-04-24 14:52 15.66453 72.50468 33803 ft 497 kts 290°
2026-04-24 14:53 15.69718 72.44109 33796 ft 494 kts 290°
2026-04-24 14:53 15.72932 72.37841 33803 ft 496 kts 291°
2026-04-24 14:54 15.76199 72.31466 33813 ft 495 kts 290°
2026-04-24 14:54 15.79409 72.25196 33815 ft 494 kts 290°
2026-04-24 14:55 15.82642 72.18874 33823 ft 496 kts 290°
2026-04-24 14:55 15.85890 72.12520 33821 ft 494 kts 290°
2026-04-24 14:56 15.89127 72.06178 33813 ft 496 kts 290°
2026-04-24 14:56 15.92354 71.99857 33812 ft 493 kts 290°
2026-04-24 14:57 15.95587 71.93510 33816 ft 497 kts 290°
2026-04-24 14:57 15.98830 71.87143 33817 ft 497 kts 290°
2026-04-24 14:58 16.02065 71.80785 33818 ft 497 kts 290°
2026-04-24 14:58 16.05323 71.74376 33816 ft 496 kts 290°
2026-04-24 14:59 16.08544 71.68034 33814 ft 495 kts 290°
2026-04-24 14:59 16.11782 71.61716 33792 ft 493 kts 291°
2026-04-24 15:00 16.15059 71.55463 33794 ft 497 kts 291°
2026-04-24 15:00 16.18379 71.49126 33796 ft 494 kts 291°
2026-04-24 15:01 16.21673 71.42821 33796 ft 497 kts 291°
2026-04-24 15:01 16.24970 71.36506 33796 ft 495 kts 291°
2026-04-24 15:02 16.28245 71.30224 33804 ft 496 kts 291°
2026-04-24 15:02 16.31517 71.23943 33809 ft 494 kts 291°
2026-04-24 15:03 16.34796 71.17644 33820 ft 493 kts 291°
2026-04-24 15:03 16.38080 71.11326 33822 ft 495 kts 291°
2026-04-24 15:04 16.41355 71.05020 33822 ft 496 kts 292°
2026-04-24 15:04 16.44651 70.98669 33824 ft 494 kts 292°
2026-04-24 15:05 16.47901 70.92400 33827 ft 495 kts 292°
2026-04-24 15:05 16.51177 70.86076 33826 ft 495 kts 292°
2026-04-24 15:06 16.54475 70.79733 33830 ft 495 kts 293°
2026-04-24 15:06 16.57790 70.73412 33829 ft 495 kts 293°
2026-04-24 15:07 16.61105 70.67084 33832 ft 494 kts 294°
2026-04-24 15:07 16.64422 70.60741 33829 ft 496 kts 294°
2026-04-24 15:08 16.67715 70.54440 33817 ft 495 kts 294°
2026-04-24 15:08 16.71029 70.48093 33814 ft 495 kts 294°
2026-04-24 15:09 16.74332 70.41759 33815 ft 496 kts 294°
2026-04-24 15:09 16.77646 70.35397 33818 ft 496 kts 295°
2026-04-24 15:10 16.80930 70.29089 33826 ft 495 kts 294°
2026-04-24 15:10 16.84222 70.22759 33825 ft 495 kts 294°
2026-04-24 15:11 16.87508 70.16433 33827 ft 496 kts 295°
2026-04-24 15:11 16.90802 70.10087 33829 ft 496 kts 295°
2026-04-24 15:12 16.94067 70.03792 33828 ft 495 kts 295°
2026-04-24 15:12 16.98997 69.94273 33832 ft 496 kts 295°
2026-04-24 15:13 17.02292 69.87904 33832 ft 495 kts 295°
2026-04-24 15:13 17.05567 69.81567 33838 ft 494 kts 295°
2026-04-24 15:14 17.08853 69.75201 33842 ft 495 kts 296°
2026-04-24 15:14 17.12117 69.68874 33847 ft 494 kts 296°
2026-04-24 15:15 17.15416 69.62472 33851 ft 494 kts 296°
2026-04-24 15:15 17.18704 69.56086 33854 ft 494 kts 296°
2026-04-24 15:16 17.21987 69.49740 33855 ft 492 kts 296°
2026-04-24 15:16 17.25269 69.43413 33857 ft 493 kts 297°
2026-04-24 15:17 17.28540 69.37097 33859 ft 493 kts 297°
2026-04-24 15:17 17.31837 69.30725 33863 ft 492 kts 297°
2026-04-24 15:18 17.35095 69.24423 33862 ft 492 kts 297°
2026-04-24 15:18 17.38365 69.18089 33868 ft 492 kts 297°
2026-04-24 15:19 17.41620 69.11779 33864 ft 493 kts 297°
2026-04-24 15:19 17.44888 69.05439 33859 ft 492 kts 297°
2026-04-24 15:20 17.48052 68.99294 33855 ft 491 kts 297°
2026-04-24 15:20 17.51246 68.93084 33850 ft 468 kts 298°
2026-04-24 15:21 17.54308 68.87126 33853 ft 469 kts 298°
2026-04-24 15:21 17.57401 68.81100 33854 ft 467 kts 298°
2026-04-24 15:22 17.60479 68.75100 33850 ft 467 kts 298°
2026-04-24 15:23 17.65118 68.66045 33852 ft 466 kts 298°
2026-04-24 15:23 17.69734 68.57021 33862 ft 469 kts 299°
2026-04-24 15:25 17.77450 68.41912 33863 ft 469 kts 299°
2026-04-24 15:26 17.85177 68.26743 33864 ft 470 kts 299°
2026-04-24 15:27 17.94451 68.08491 33871 ft 472 kts 300°
2026-04-24 15:29 18.03751 67.90135 33859 ft 474 kts 300°
2026-04-24 15:31 18.14774 67.68828 33876 ft 472 kts 301°
2026-04-24 15:33 18.27452 67.44602 33885 ft 471 kts 302°
2026-04-24 15:34 18.35337 67.29481 33886 ft 470 kts 302°
2026-04-24 15:35 18.43206 67.14350 33892 ft 469 kts 302°
2026-04-24 15:36 18.46343 67.08308 33893 ft 469 kts 302°
2026-04-24 15:36 18.51061 66.99211 33896 ft 469 kts 302°
2026-04-24 15:37 18.54183 66.93184 33882 ft 469 kts 302°
2026-04-24 15:37 18.57326 66.87109 33900 ft 469 kts 302°
2026-04-24 15:38 18.60448 66.81070 33892 ft 468 kts 302°
2026-04-24 15:38 18.63567 66.75030 33898 ft 469 kts 302°
2026-04-24 15:39 18.66683 66.68990 33889 ft 468 kts 302°
2026-04-24 15:39 18.69800 66.62942 33890 ft 469 kts 302°
2026-04-24 15:40 18.72947 66.56831 33875 ft 468 kts 302°
2026-04-24 15:40 18.76044 66.50809 33872 ft 468 kts 302°
2026-04-24 15:41 18.79176 66.44714 33880 ft 469 kts 302°
2026-04-24 15:41 18.82290 66.38648 33864 ft 469 kts 302°
2026-04-24 15:42 18.85401 66.32581 33871 ft 468 kts 302°
2026-04-24 15:42 18.88502 66.26530 33866 ft 470 kts 302°
2026-04-24 15:43 18.91614 66.20448 33868 ft 470 kts 302°
2026-04-24 15:43 18.94725 66.14364 33869 ft 469 kts 302°
2026-04-24 15:44 18.97825 66.08295 33867 ft 469 kts 302°
2026-04-24 15:44 19.00928 66.02214 33861 ft 469 kts 302°
2026-04-24 15:45 19.04022 65.96145 33871 ft 469 kts 302°
2026-04-24 15:45 19.07112 65.90076 33879 ft 470 kts 302°
2026-04-24 15:46 19.10216 65.83974 33884 ft 470 kts 302°
2026-04-24 15:46 19.13322 65.77862 33890 ft 469 kts 302°
2026-04-24 15:47 19.16440 65.71721 33888 ft 470 kts 302°
2026-04-24 15:47 19.19515 65.65656 33892 ft 468 kts 302°
2026-04-24 15:48 19.22615 65.59538 33897 ft 470 kts 302°
2026-04-24 15:48 19.25709 65.53426 33888 ft 470 kts 302°
2026-04-24 15:49 19.28800 65.47311 33892 ft 471 kts 302°
2026-04-24 15:49 19.31871 65.41229 33895 ft 470 kts 302°
2026-04-24 15:50 19.34981 65.35068 33894 ft 471 kts 302°
2026-04-24 15:50 19.38089 65.28899 33894 ft 471 kts 301°
2026-04-24 15:51 19.41165 65.22790 33887 ft 470 kts 301°
2026-04-24 15:51 19.44271 65.16615 33884 ft 472 kts 301°
2026-04-24 15:52 19.47369 65.10449 33891 ft 473 kts 301°
2026-04-24 15:52 19.50453 65.04305 33896 ft 473 kts 301°
2026-04-24 15:53 19.53553 64.98143 33879 ft 473 kts 302°
2026-04-24 15:53 19.56730 64.91989 33895 ft 472 kts 302°
2026-04-24 15:54 19.59887 64.85868 33885 ft 473 kts 302°
2026-04-24 15:54 19.63049 64.79727 33893 ft 474 kts 302°
2026-04-24 15:55 19.66222 64.73554 33882 ft 473 kts 302°
2026-04-24 15:55 19.69359 64.67442 33890 ft 472 kts 302°
2026-04-24 15:56 19.72522 64.61275 33884 ft 472 kts 302°
2026-04-24 15:56 19.75672 64.55125 33882 ft 473 kts 302°
2026-04-24 15:57 19.78817 64.48978 33883 ft 473 kts 302°
2026-04-24 15:57 19.81952 64.42844 33889 ft 474 kts 302°
2026-04-24 15:58 19.85108 64.36662 33887 ft 473 kts 302°
2026-04-24 15:58 19.88246 64.30508 33891 ft 472 kts 302°
2026-04-24 15:59 19.91374 64.24370 33884 ft 473 kts 302°
2026-04-24 15:59 19.94523 64.18182 33886 ft 472 kts 302°
2026-04-24 16:00 19.97659 64.12011 33882 ft 473 kts 302°
2026-04-24 16:00 20.00788 64.05851 33865 ft 474 kts 302°
2026-04-24 16:01 20.03927 63.99663 33866 ft 474 kts 302°
2026-04-24 16:01 20.07034 63.93530 33863 ft 472 kts 302°
2026-04-24 16:02 20.10164 63.87346 33867 ft 472 kts 302°
2026-04-24 16:02 20.13279 63.81185 33879 ft 472 kts 302°
2026-04-24 16:03 20.16394 63.75017 33878 ft 471 kts 302°
2026-04-24 16:03 20.19521 63.68819 33877 ft 472 kts 302°
2026-04-24 16:04 20.22608 63.62694 33881 ft 470 kts 302°
2026-04-24 16:04 20.25718 63.56515 33882 ft 471 kts 302°
2026-04-24 16:05 20.30348 63.47306 33882 ft 470 kts 302°
2026-04-24 16:06 20.34977 63.38082 33881 ft 469 kts 302°
2026-04-24 16:07 20.39604 63.28848 33878 ft 470 kts 301°
2026-04-24 16:07 20.44201 63.19659 33884 ft 468 kts 301°
2026-04-24 16:08 20.48810 63.10431 33889 ft 467 kts 301°
2026-04-24 16:09 20.53393 63.01239 33888 ft 468 kts 301°
2026-04-24 16:09 20.56482 62.95041 33890 ft 486 kts 301°
2026-04-24 16:11 20.64528 62.78845 33887 ft 493 kts 301°
2026-04-24 16:11 20.67753 62.72341 33881 ft 493 kts 301°
2026-04-24 16:12 20.72554 62.62643 33872 ft 492 kts 301°
2026-04-24 16:13 20.77383 62.52873 33870 ft 494 kts 301°
2026-04-24 16:14 20.83766 62.39932 33870 ft 493 kts 301°
2026-04-24 16:14 20.88587 62.30138 33868 ft 494 kts 300°
2026-04-24 16:15 20.93372 62.20399 33862 ft 493 kts 300°
2026-04-24 16:16 20.98154 62.10650 33865 ft 493 kts 300°
2026-04-24 16:17 21.06155 61.94297 33865 ft 495 kts 300°
2026-04-24 16:18 21.12548 61.81195 33875 ft 493 kts 300°
2026-04-24 16:19 21.17324 61.71385 33870 ft 493 kts 300°
2026-04-24 16:20 21.20746 61.60989 33866 ft 502 kts 279°
2026-04-24 16:20 21.21221 61.49684 33868 ft 505 kts 275°
2026-04-24 16:21 21.21541 61.38421 33871 ft 505 kts 275°
2026-04-24 16:22 21.21747 61.30875 33875 ft 505 kts 274°
2026-04-24 16:22 21.22044 61.19652 33886 ft 504 kts 274°
2026-04-24 16:23 21.22239 61.12128 33885 ft 504 kts 274°
2026-04-24 16:24 21.22523 61.00840 33885 ft 505 kts 274°
2026-04-24 16:24 21.22708 60.93354 33888 ft 505 kts 274°
2026-04-24 16:25 21.22890 60.85818 33885 ft 504 kts 274°
2026-04-24 16:25 21.23067 60.78333 33889 ft 502 kts 274°
2026-04-24 16:26 21.23326 60.67152 33881 ft 502 kts 274°
2026-04-24 16:27 21.23579 60.55934 33879 ft 502 kts 274°
2026-04-24 16:27 21.23742 60.48495 33879 ft 501 kts 274°
2026-04-24 16:28 21.23902 60.41051 33876 ft 500 kts 274°
2026-04-24 16:28 21.24137 60.29868 33876 ft 501 kts 274°
2026-04-24 16:29 21.24290 60.22390 33875 ft 500 kts 274°
2026-04-24 16:30 21.24582 60.07444 33872 ft 499 kts 274°
2026-04-24 16:30 21.24722 59.99974 33870 ft 499 kts 274°
2026-04-24 16:31 21.24858 59.92553 33869 ft 498 kts 274°
2026-04-24 16:31 21.24991 59.85098 33869 ft 498 kts 274°
2026-04-24 16:32 21.25120 59.77668 33868 ft 497 kts 274°
2026-04-24 16:32 21.25246 59.70290 33872 ft 497 kts 274°
2026-04-24 16:33 21.25369 59.62884 33870 ft 496 kts 274°
2026-04-24 16:33 21.25487 59.55534 33869 ft 495 kts 274°
2026-04-24 16:34 21.25603 59.48156 33868 ft 495 kts 274°
2026-04-24 16:34 21.25716 59.40748 33868 ft 495 kts 274°
2026-04-24 16:35 21.25824 59.33413 33866 ft 494 kts 274°
2026-04-24 16:35 21.25931 59.26018 33870 ft 496 kts 273°
2026-04-24 16:36 21.26034 59.18647 33868 ft 493 kts 273°
2026-04-24 16:36 21.26133 59.11311 33872 ft 493 kts 274°
2026-04-24 16:37 21.26229 59.03962 33873 ft 493 kts 273°
2026-04-24 16:37 21.26321 58.96668 33879 ft 492 kts 274°
2026-04-24 16:38 21.26411 58.89316 33879 ft 493 kts 273°
2026-04-24 16:38 21.26514 58.82000 33876 ft 492 kts 276°
2026-04-24 16:39 21.27830 58.74841 33886 ft 487 kts 289°
2026-04-24 16:39 21.29807 58.67950 33886 ft 486 kts 289°
2026-04-24 16:40 21.31801 58.61010 33884 ft 486 kts 289°
2026-04-24 16:40 21.33783 58.54094 33880 ft 485 kts 289°
2026-04-24 16:41 21.35750 58.47218 33879 ft 486 kts 289°
2026-04-24 16:41 21.37726 58.40295 33874 ft 485 kts 289°
2026-04-24 16:42 21.39700 58.33365 33875 ft 485 kts 289°
2026-04-24 16:42 21.41684 58.26387 33877 ft 486 kts 289°
2026-04-24 16:43 21.43646 58.19476 33876 ft 485 kts 289°
2026-04-24 16:43 21.45612 58.12540 33876 ft 485 kts 289°
2026-04-24 16:44 21.47574 58.05602 33875 ft 485 kts 289°
2026-04-24 16:44 21.49533 57.98667 33870 ft 486 kts 289°
2026-04-24 16:45 21.51478 57.91765 33869 ft 485 kts 289°
2026-04-24 16:45 21.53406 57.84914 33871 ft 485 kts 288°
2026-04-24 16:46 21.55368 57.77932 33876 ft 483 kts 289°
2026-04-24 16:46 21.57296 57.71056 33881 ft 485 kts 288°
2026-04-24 16:47 21.59239 57.64114 33878 ft 483 kts 289°
2026-04-24 16:47 21.61155 57.57243 33875 ft 482 kts 288°
2026-04-24 16:48 21.63080 57.50333 33873 ft 483 kts 288°
2026-04-24 16:48 21.64991 57.43457 33871 ft 481 kts 288°
2026-04-24 16:49 21.66902 57.36574 33871 ft 482 kts 288°
2026-04-24 16:49 21.68807 57.29699 33873 ft 482 kts 288°
2026-04-24 16:50 21.70720 57.22781 33872 ft 481 kts 288°
2026-04-24 16:50 21.72609 57.15939 33873 ft 480 kts 288°
2026-04-24 16:51 21.74508 57.09038 33867 ft 479 kts 288°
2026-04-24 16:51 21.76388 57.02197 33869 ft 478 kts 288°
2026-04-24 16:52 21.78277 56.95310 33864 ft 481 kts 288°
2026-04-24 16:52 21.80153 56.88457 33860 ft 479 kts 288°
2026-04-24 16:53 21.82036 56.81566 33858 ft 480 kts 288°
2026-04-24 16:53 21.83915 56.74676 33856 ft 480 kts 288°
2026-04-24 16:54 21.85792 56.67786 33861 ft 479 kts 288°
2026-04-24 16:54 21.87656 56.60932 33860 ft 478 kts 288°
2026-04-24 16:55 21.89519 56.54069 33858 ft 479 kts 288°
2026-04-24 16:55 21.91383 56.47191 33855 ft 477 kts 287°
2026-04-24 16:56 21.93235 56.40342 33853 ft 478 kts 287°
2026-04-24 16:56 21.95096 56.33450 33855 ft 478 kts 287°
2026-04-24 16:57 21.96933 56.26619 33853 ft 476 kts 287°
2026-04-24 16:57 21.98783 56.19727 33852 ft 477 kts 287°
2026-04-24 16:58 22.00615 56.12891 33853 ft 477 kts 287°
2026-04-24 16:58 22.02450 56.06029 33848 ft 477 kts 287°
2026-04-24 16:59 22.04292 55.99165 33843 ft 477 kts 287°
2026-04-24 17:00 22.07056 55.88841 33841 ft 478 kts 287°
2026-04-24 17:00 22.09810 55.78525 33841 ft 478 kts 287°
2026-04-24 17:01 22.11636 55.71669 33842 ft 466 kts 287°
2026-04-24 17:01 22.12505 55.68399 33840 ft 451 kts 287°
2026-04-24 17:02 22.15060 55.58781 33841 ft 447 kts 287°
2026-04-24 17:02 22.16111 55.52203 33845 ft 449 kts 277°
2026-04-24 17:03 22.17090 55.42162 33844 ft 449 kts 277°
2026-04-24 17:04 22.17742 55.35446 33840 ft 448 kts 277°
2026-04-24 17:04 22.18717 55.25365 33849 ft 459 kts 277°
2026-04-24 17:05 22.19378 55.18491 33847 ft 459 kts 277°
2026-04-24 17:06 22.20360 55.08220 33856 ft 460 kts 277°
2026-04-24 17:06 22.21331 54.98001 33861 ft 458 kts 277°
2026-04-24 17:07 22.21976 54.91172 33864 ft 457 kts 277°
2026-04-24 17:08 22.23256 54.77535 33864 ft 458 kts 277°
2026-04-24 17:08 22.23892 54.70715 33858 ft 456 kts 277°
2026-04-24 17:09 22.25150 54.57127 33865 ft 458 kts 277°
2026-04-24 17:10 22.26396 54.43538 33867 ft 453 kts 277°
2026-04-24 17:12 22.28851 54.16407 33873 ft 455 kts 276°
2026-04-24 18:54 24.09201 40.76508 29575 ft 431 kts 280°
2026-04-24 18:55 24.10939 40.70286 29051 ft 425 kts 281°
2026-04-24 18:55 24.11803 40.67188 28788 ft 422 kts 280°
2026-04-24 18:55 24.12649 40.64152 28410 ft 418 kts 280°
2026-04-24 18:56 24.13496 40.61111 27840 ft 415 kts 281°
2026-04-24 18:56 24.14326 40.58127 27190 ft 413 kts 281°
2026-04-24 18:56 24.15163 40.55111 26468 ft 414 kts 281°
2026-04-24 18:56 24.15957 40.52143 25845 ft 409 kts 278°
2026-04-24 18:57 24.16450 40.49117 25308 ft 400 kts 272°
2026-04-24 18:57 24.16817 40.46108 24728 ft 398 kts 272°
2026-04-24 18:57 24.17177 40.43112 24102 ft 396 kts 273°
2026-04-24 18:57 24.17533 40.40144 23484 ft 394 kts 272°
2026-04-24 18:58 24.17886 40.37193 22949 ft 390 kts 273°
2026-04-24 18:58 24.18231 40.34318 22794 ft 376 kts 272°
2026-04-24 18:58 24.18569 40.31498 22450 ft 370 kts 272°
2026-04-24 18:58 24.18898 40.28717 21745 ft 373 kts 273°
2026-04-24 18:59 24.19232 40.25893 21066 ft 375 kts 272°
2026-04-24 18:59 24.19656 40.23096 20601 ft 374 kts 279°
2026-04-24 18:59 24.20479 40.20403 20195 ft 374 kts 288°
2026-04-24 18:59 24.21721 40.17857 19704 ft 377 kts 297°
2026-04-24 19:00 24.23268 40.15566 19157 ft 380 kts 302°
2026-04-24 19:00 24.24903 40.13299 18628 ft 379 kts 302°
2026-04-24 19:00 24.26539 40.11035 18153 ft 375 kts 302°
2026-04-24 19:00 24.27800 40.09291 17812 ft 372 kts 302°
2026-04-24 19:01 24.29406 40.07068 17326 ft 370 kts 302°
2026-04-24 19:01 24.31000 40.04859 16809 ft 368 kts 303°
2026-04-24 19:01 24.32586 40.02660 16333 ft 365 kts 303°
2026-04-24 19:01 24.34162 40.00474 15859 ft 363 kts 303°
2026-04-24 19:02 24.35184 39.99057 15545 ft 361 kts 303°
2026-04-24 19:02 24.37253 39.96186 15049 ft 354 kts 303°
2026-04-24 19:02 24.38773 39.94073 15002 ft 358 kts 303°
2026-04-24 19:02 24.40328 39.91912 14950 ft 355 kts 303°
2026-04-24 19:03 24.41847 39.89801 14599 ft 350 kts 303°
2026-04-24 19:03 24.43340 39.87723 14042 ft 351 kts 304°
2026-04-24 19:03 24.44920 39.85679 13528 ft 354 kts 313°
2026-04-24 19:03 24.46967 39.84133 13108 ft 356 kts 330°
2026-04-24 19:04 24.49292 39.83279 12939 ft 346 kts 343°
2026-04-24 19:04 24.51600 39.82767 12873 ft 330 kts 345°
2026-04-24 19:04 24.53789 39.82308 12756 ft 316 kts 345°
2026-04-24 19:04 24.55907 39.81860 12651 ft 303 kts 345°
2026-04-24 19:05 24.57979 39.81417 12508 ft 302 kts 344°
2026-04-24 19:05 24.60070 39.80973 12158 ft 304 kts 345°
2026-04-24 19:05 24.62132 39.80537 11821 ft 299 kts 344°
2026-04-24 19:05 24.64154 39.80109 11501 ft 295 kts 345°
2026-04-24 19:06 24.66159 39.79684 11180 ft 290 kts 345°
2026-04-24 19:06 24.68133 39.79265 10855 ft 287 kts 344°
2026-04-24 19:06 24.70087 39.78851 10536 ft 283 kts 344°
2026-04-24 19:06 24.72016 39.78440 10237 ft 280 kts 345°
2026-04-24 19:07 24.73909 39.78038 9871 ft 276 kts 345°
2026-04-24 19:07 24.75779 39.77641 9549 ft 269 kts 345°
2026-04-24 19:07 24.77021 39.77378 9330 ft 265 kts 345°
2026-04-24 19:07 24.79399 39.76872 8945 ft 260 kts 345°
2026-04-24 19:08 24.81180 39.76492 8661 ft 258 kts 345°
2026-04-24 19:08 24.82927 39.76120 8429 ft 252 kts 345°
2026-04-24 19:08 24.84615 39.75762 8183 ft 243 kts 345°
2026-04-24 19:08 24.86256 39.75413 7953 ft 234 kts 345°
2026-04-24 19:09 24.87843 39.75076 7726 ft 226 kts 345°
2026-04-24 19:09 24.89343 39.74730 7506 ft 219 kts 337°
2026-04-24 19:09 24.90583 39.73817 7266 ft 212 kts 303°
2026-04-24 19:09 24.91079 39.72362 7085 ft 201 kts 268°
2026-04-24 19:10 24.90662 39.70893 7077 ft 206 kts 233°
2026-04-24 19:10 24.89678 39.69765 7084 ft 205 kts 224°
2026-04-24 19:10 24.88629 39.68704 7081 ft 205 kts 224°
2026-04-24 19:10 24.87505 39.67729 7069 ft 205 kts 207°
2026-04-24 19:11 24.86143 39.67164 6832 ft 210 kts 200°
2026-04-24 19:11 24.84752 39.66659 6582 ft 208 kts 200°
2026-04-24 19:11 24.83376 39.66164 6349 ft 205 kts 200°
2026-04-24 19:11 24.82042 39.65723 6285 ft 195 kts 193°
2026-04-24 19:12 24.80701 39.65609 6290 ft 196 kts 179°
2026-04-24 19:12 24.79332 39.65770 6261 ft 197 kts 174°
2026-04-24 19:12 24.77989 39.66026 6013 ft 192 kts 172°
2026-04-24 19:12 24.76725 39.66293 5787 ft 180 kts 171°
2026-04-24 19:13 24.75900 39.66470 5640 ft 174 kts 171°
2026-04-24 19:13 24.74307 39.66811 5352 ft 178 kts 171°
2026-04-24 19:13 24.73097 39.67070 5122 ft 172 kts 171°
2026-04-24 19:13 24.71938 39.67316 4909 ft 170 kts 171°
2026-04-24 19:14 24.70769 39.67564 4696 ft 170 kts 171°
2026-04-24 19:14 24.69596 39.67812 4478 ft 171 kts 171°
2026-04-24 19:14 24.68441 39.68057 4254 ft 169 kts 171°
2026-04-24 19:14 24.67289 39.68301 4031 ft 164 kts 171°
2026-04-24 19:15 24.66201 39.68530 3816 ft 155 kts 171°
2026-04-24 19:15 24.65176 39.68746 3619 ft 144 kts 171°
2026-04-24 19:15 24.64184 39.68956 3435 ft 145 kts 171°
2026-04-24 19:15 24.63178 39.69168 3239 ft 144 kts 171°
2026-04-24 19:16 24.61175 39.69592 2853 ft 146 kts 170°
2026-04-24 19:16 24.60185 39.69801 2662 ft 146 kts 170°
2026-04-24 19:16 24.59181 39.70013 2472 ft 146 kts 171°
2026-04-24 19:17 24.58170 39.70215 2289 ft 146 kts 171°
2026-04-24 19:17 24.57172 39.70435 2145 ft 141 kts 170°
2026-04-24 19:17 24.56338 39.70607 2139 ft 99 kts 169°
2026-04-24 19:17 24.55810 39.70720 2138 ft 55 kts 169°
2026-04-24 19:18 24.55505 39.70785 2128 ft 37 kts 169°
2026-04-24 19:18 24.55325 39.70866 2120 ft 24 kts 146°
2026-04-24 19:18 24.55232 39.70949 2116 ft 14 kts 127°
2026-04-24 19:18 24.55218 39.71007 2116 ft 4 kts 86°
2026-04-24 19:19 24.55220 39.71032 2117 ft 2 kts 83°
2026-04-24 19:19 24.55221 39.71040 2117 ft 0 kts 83°
2026-04-24 19:19 24.55224 39.71062 2117 ft 8 kts 83°
2026-04-24 19:19 24.55233 39.71119 2119 ft 5 kts 79°
2026-04-24 19:20 24.55238 39.71146 2121 ft 1 kts 79°
2026-04-24 19:20 24.55240 39.71159 2121 ft 3 kts 79°
2026-04-24 19:20 24.55253 39.71197 2124 ft 6 kts 49°
2026-04-24 19:20 24.55313 39.71213 2129 ft 10 kts 354°
2026-04-24 19:21 24.55384 39.71200 2134 ft 10 kts 351°
2026-04-24 19:21 24.55434 39.71190 2137 ft 4 kts 346°
2026-04-24 19:21 24.55471 39.71180 2140 ft 7 kts 346°
2026-04-24 19:21 24.55530 39.71183 2143 ft 9 kts 44°
2026-04-24 19:22 24.55541 39.71227 2144 ft 5 kts 81°
2026-04-24 19:22 24.55543 39.71252 2144 ft 0 kts 82°
2026-04-24 19:22 24.55543 39.71253 2145 ft 0 kts 82°